Location: Bun Machan
(52.1403°N, 7.3744°W)
Time: 07:58:32
(UTC+00:00)

Cosmos 2369 - Pass Details

Date: 14 July 2020
Orbit: 839 x 857 km, 71.0° (Epoch: 04 August)

Event Time Altitude Azimuth Distance (km) Brightness Sun altitude
Rises 01:36:32 0° 329° (NNW) 3,435 7.6 -15.0°
Reaches altitude 10° 01:39:04 10° 334° (NNW) 2,497 6.9 -14.9°
Maximum altitude 01:44:42 55° 53° (NE) 1,027 4.4 -14.7°
Drops below altitude 10° 01:50:19 10° 131° (SE) 2,488 5.9 -14.4°
Sets 01:52:49 0° 135° (SE) 3,421 6.6 -14.3°
